Temperature
20 20 20 20 20 19 19 19 19 19 19 19 19 19 19 19 19 19 19 19 19 19 19 19 19 19 19 19 19 19 19 19 19 19 19 19 19 19 19 19 18 18 19
20 20 20 20 19 19 19 19 19 19 19 19 19 19 19 19 19 19 19 19 19 19 19 19 19 19 19 19 19 19 19 19 19 19 19 19 19 19 19 18 18 18 19
20 20 20 19 19 19 19 19 19 19 19 19 19 19 19 19 19 19 19 19 19 19 19 19 19 19 19 18 18 18 19 19 19 18 18 18 18 18 18 18 18 18 19
19 19 19 19 19 19 19 19 19 18 18 18 18 18 18 18 18 19 19 19 19 19 18 18 18 18 18 18 18 18 18 19 18 18 18 18 18 18 18 18 18 18 18
19 19 19 19 19 19 19 19 19 18 18 18 18 18 18 18 18 18 18 18 18 19 18 18 18 18 18 18 18 18 18 18 18 18 18 18 18 18 18 18 18 18 18
19 19 19 19 19 19 19 19 19 19 18 18 18 18 18 18 18 18 18 18 18 18 18 18 18 18 18 18 18 18 18 18 18 18 18 18 18 18 18 18 18 18 18
19 19 19 19 19 19 19 19 18 18 18 18 18 18 18 18 18 18 18 18 18 18 18 18 18 18 18 18 18 18 18 18 18 18 18 18 18 18 18 18 18 18 18
19 18 18 18 18 19 18 18 18 18 18 18 18 18 18 18 18 18 18 18 18 18 18 18 18 18 18 18 18 18 18 18 18 18 18 18 18 18 18 18 18 18 18
19 18 18 18 18 18 18 18 18 18 18 18 18 18 18 18 18 18 18 18 18 18 18 18 18 18 18 18 18 18 18 18 18 18 18 18 18 18 18 18 18 18 18
19 18 18 18 18 18 18 18 18 18 18 18 18 18 18 18 18 18 18 18 18 18 18 18 18 18 18 18 18 18 18 18 18 18 18 18 18 18 19 19 18 18 18
19 18 18 18 18 18 17 17 17 17 18 18 18 18 18 18 18 18 18 18 18 18 18 18 18 18 18 18 18 18 18 18 18 18 18 18 18 18 19 19 18 18 18
19 18 18 18 17 17 17 17 17 17 17 17 17 17 18 18 18 18 18 18 18 18 18 18 18 18 18 18 18 18 18 18 18 18 18 18 18 18 19 19 19 18 18
18 18 17 17 17 17 16 16 16 16 16 16 17 17 17 17 17 18 18 17 18 18 18 18 18 18 18 18 17 18 18 18 18 18 18 18 18 18 19 19 19 18 18
18 17 17 16 16 16 16 16 16 16 16 16 16 16 17 17 17 17 17 17 17 18 18 17 17 18 18 18 17 18 18 18 18 18 18 18 18 18 18 19 19 18 18
18 17 17 16 15 15 15 15 15 16 16 16 16 16 16 16 16 17 17 17 17 17 17 17 17 17 17 18 18 18 18 18 19 18 18 18 18 18 18 18 19 18 18
18 17 16 16 15 15 15 15 15 15 15 16 16 16 16 16 16 16 16 17 17 17 17 17 17 17 18 18 18 18 18 18 18 18 18 18 18 18 18 18 18 18 18
17 16 16 16 15 15 14 14 15 15 15 15 15 15 15 16 16 16 16 16 17 17 17 17 17 17 17 18 18 18 18 19 19 18 18 18 18 18 18 18 18 18 18
16 16 16 15 15 15 14 14 14 14 15 15 15 15 15 15 15 16 16 16 16 16 16 16 17 17 17 17 17 18 18 18 19 18 18 18 18 18 18 18 18 18 18
16 16 16 15 15 14 14 14 14 14 14 14 14 14 14 14 15 15 15 16 16 16 16 16 16 17 17 17 17 17 18 18 18 18 18 18 18 18 18 18 18 18 18
16 16 16 16 15 14 14 14 14 14 14 14 14 14 14 14 14 15 15 15 15 16 16 16 16 16 16 17 17 17 17 17 18 18 18 18 18 18 18 18 18 18 18
16 16 16 16 15 14 14 14 14 14 14 14 14 14 14 14 14 14 14 15 15 15 15 16 16 16 16 16 16 16 17 17 17 18 18 18 18 18 18 18 18 18 18
16 16 16 15 15 14 14 13 13 14 14 14 13 14 14 14 14 14 14 14 14 15 15 15 15 16 16 16 16 16 16 16 17 17 18 18 18 18 18 18 18 18 18
17 16 15 15 14 14 13 13 13 13 13 13 13 13 13 13 13 14 14 14 14 14 14 15 15 15 15 16 16 16 16 17 17 17 18 18 18 18 18 18 18 18 18
16 15 15 15 14 13 13 13 13 13 13 13 13 13 13 13 13 13 13 14 14 14 14 14 14 15 15 15 16 16 16 16 17 17 17 18 18 18 18 18 18 18 18
16 15 15 14 14 13 13 13 13 13 13 13 13 13 13 13 13 13 13 13 13 13 14 14 14 14 15 15 15 15 16 16 16 16 17 17 17 18 18 18 18 18 18
16 15 15 14 14 13 13 13 13 13 13 13 13 13 13 13 13 13 13 13 13 13 13 14 14 14 14 14 15 15 15 16 16 16 16 17 17 18 18 18 18 18 18
Wind_Speed
10 14 12 10 8 7 6 5 5 4 4 3 3 2 2 3 3 3 4 3 4 4 4 4 5 5 6 6 6 6 7 6 5 4 4 5 6 6 6 6 5 9 10
13 15 13 10 8 6 5 4 3 2 2 2 1 1 1 2 2 2 3 3 2 2 3 3 3 4 4 4 5 5 5 4 3 2 1 3 5 5 6 7 9 8 8
13 14 13 10 7 6 4 3 2 2 1 2 2 2 2 2 2 2 2 2 2 2 2 2 2 2 3 3 4 4 4 3 4 4 4 2 5 6 6 7 8 7 7
12 13 13 11 8 6 4 3 3 3 3 3 3 4 4 4 4 3 3 3 3 2 2 2 2 2 2 2 3 4 4 5 6 7 5 3 7 7 6 5 5 6 5
13 15 13 12 10 7 6 4 4 3 4 4 5 5 6 6 5 5 5 4 4 4 3 3 2 3 2 2 3 3 5 6 8 9 4 7 10 8 6 5 4 4 4
11 13 13 12 10 9 7 6 5 4 4 5 6 6 7 7 7 7 6 6 6 5 5 4 3 3 3 3 3 4 5 6 9 7 1 7 10 8 6 5 4 4 4
9 9 10 10 9 8 6 5 5 4 4 4 5 6 7 7 8 8 8 8 7 7 6 5 5 5 5 4 4 4 5 7 9 6 0 9 10 8 6 5 4 4 3
7 6 7 7 6 5 4 4 3 3 4 4 5 6 7 8 8 9 9 9 9 8 8 7 6 6 6 6 5 6 6 8 7 6 2 9 10 8 6 5 4 4 3
4 3 3 3 3 3 1 0 2 3 4 4 5 5 6 8 9 10 10 10 10 10 9 8 8 7 7 7 7 7 7 8 9 8 2 9 10 8 6 5 4 4 3
3 2 2 1 1 1 3 5 4 5 6 6 6 7 7 8 10 11 11 11 11 11 10 10 9 9 9 9 9 9 9 9 11 9 4 10 11 9 7 6 5 4 4
4 3 1 2 1 2 4 3 5 6 8 8 8 8 8 7 8 8 10 11 11 11 11 11 11 11 10 11 12 12 10 10 12 6 8 12 11 9 7 6 5 5 4
6 6 5 5 3 4 4 3 3 5 6 7 8 8 6 7 7 7 8 9 10 10 10 11 12 12 12 11 14 15 11 13 12 7 10 15 12 10 7 6 5 5 4
6 8 7 7 6 5 3 4 3 4 6 7 8 8 7 7 7 7 6 7 8 9 8 9 10 10 10 10 8 11 13 12 9 7 13 16 14 11 8 7 6 5 4
6 5 6 7 7 6 5 4 4 3 3 3 5 6 5 3 3 4 4 5 6 6 5 5 4 7 9 9 6 7 9 8 5 7 14 17 15 12 10 8 7 6 5
6 5 6 7 7 6 4 3 4 3 2 4 4 5 6 3 4 4 3 4 6 7 5 4 4 5 5 6 4 5 4 4 6 7 12 17 17 14 12 10 9 8 7
7 7 7 6 6 6 6 6 5 4 5 4 3 5 7 5 4 4 4 4 4 6 7 6 6 5 5 4 4 5 6 4 4 7 13 16 18 17 14 12 11 10 9
8 8 6 5 7 7 7 7 5 5 6 4 4 7 7 5 3 3 3 3 3 6 7 6 6 4 5 4 5 5 5 5 4 4 10 13 15 17 17 15 13 12 11
7 7 6 7 7 6 6 5 4 5 5 4 6 7 9 9 7 2 2 3 3 4 4 5 6 5 5 4 4 5 4 5 5 4 5 11 13 14 17 18 17 15 13
5 6 6 5 5 6 6 5 4 4 4 4 5 6 8 9 9 5 3 3 3 2 3 5 5 5 6 6 6 5 4 5 5 6 5 6 10 13 15 18 19 18 16
3 5 5 4 5 6 5 6 4 5 5 3 4 5 7 7 8 6 4 4 3 2 3 3 4 5 5 6 7 7 6 6 5 6 6 4 4 9 13 16 16 16 18
4 5 5 5 6 5 4 5 5 5 5 4 4 6 7 8 8 6 5 4 4 3 4 4 4 5 5 5 4 4 4 5 6 6 5 5 4 4 8 14 15 14 15
3 4 6 7 6 5 4 5 5 5 5 4 4 4 7 7 7 7 7 5 4 3 4 4 3 3 3 4 4 3 3 4 6 8 6 6 6 4 4 10 12 14 15
4 6 7 7 6 7 7 4 6 5 4 5 5 4 4 5 6 5 6 6 6 4 3 4 3 3 3 3 5 4 4 5 3 4 8 8 7 5 4 4 8 11 14
6 6 7 7 7 6 6 4 6 5 5 5 4 4 5 4 4 5 5 6 6 5 4 5 3 2 3 4 4 5 5 2 2 3 4 6 7 7 6 5 5 6 10
4 4 3 4 5 5 5 6 4 4 4 4 4 6 6 4 3 4 5 5 6 4 5 5 5 4 3 4 4 3 4 4 5 4 4 4 5 6 6 5 4 4 7
2 2 2 2 2 2 4 6 4 4 6 6 5 6 5 4 4 6 6 6 6 5 5 5 5 5 4 4 4 4 4 3 4 5 5 4 4 5 6 5 5 5 6
Wind_Direction
109 114 115 108 103 99 94 90 87 85 82 76 67 56 46 38 34 29 24 27 30 35 33 30 31 31 35 37 38 40 40 43 51 62 75 86 89 81 68 53 62 88 88
109 115 113 105 97 93 90 83 75 70 63 50 37 18 1 357 359 4 4 5 5 17 19 16 18 20 24 24 26 28 28 28 24 23 99 119 112 97 75 60 72 90 90
103 115 112 103 94 85 75 58 35 12 345 322 311 302 299 298 304 315 320 326 330 333 342 355 355 359 3 7 10 9 3 351 329 312 286 221 137 106 88 77 82 91 94
90 99 99 95 85 73 57 32 6 346 325 305 294 290 285 281 280 282 288 293 297 299 295 308 316 316 323 336 345 344 337 320 309 306 294 145 132 108 98 92 90 92 98
79 84 86 83 74 62 49 34 13 345 321 303 292 287 282 276 273 272 272 275 277 278 276 271 278 288 290 294 306 313 315 308 305 299 326 93 110 111 103 96 93 96 102
73 81 80 76 71 62 52 40 23 356 328 306 294 286 280 276 270 266 265 266 267 268 266 262 262 270 273 274 281 290 300 301 302 292 4 103 112 112 105 95 95 102 104
73 81 85 83 76 66 54 41 23 1 339 319 303 291 282 276 270 265 259 261 264 264 262 259 258 260 262 262 269 277 288 298 285 282 175 109 116 115 109 101 95 103 112
68 74 95 102 94 78 56 35 13 348 329 318 304 293 283 277 274 268 259 257 258 258 258 256 253 255 256 255 258 265 275 289 288 290 138 119 124 117 111 108 96 94 108
86 86 85 99 126 133 140 280 326 313 306 300 295 288 283 273 265 263 258 253 251 251 251 250 249 249 251 250 250 256 264 276 287 282 196 127 127 123 116 108 102 98 105
90 83 99 98 98 172 213 216 230 264 276 281 281 274 273 271 260 254 253 248 244 245 246 248 247 246 246 246 246 247 252 265 263 261 146 135 134 128 123 117 107 105 105
33 27 30 7 347 289 264 244 227 255 256 261 267 260 257 260 255 245 244 244 242 240 243 245 246 246 245 243 240 238 239 246 248 223 135 138 137 133 131 127 117 115 112
14 12 4 354 335 311 307 317 264 275 263 246 249 255 247 248 251 251 251 246 245 240 240 245 247 246 242 244 233 227 230 235 245 200 152 150 147 142 142 140 135 129 126
20 12 357 1 342 339 340 338 322 289 271 258 250 246 245 244 243 239 238 238 235 238 239 243 241 242 240 241 229 207 224 231 223 184 158 159 153 152 155 156 153 150 146
35 2 14 4 347 348 348 340 298 271 262 270 271 267 254 239 234 227 219 218 207 214 223 238 234 244 256 256 243 223 229 223 203 154 158 163 161 162 166 169 169 168 166
29 12 37 3 350 345 340 305 313 313 313 304 293 277 266 243 248 242 226 213 209 205 203 206 218 231 252 271 277 274 269 229 193 167 163 170 172 172 175 179 180 180 181
20 16 35 356 358 346 346 339 329 324 308 296 291 285 277 257 245 249 238 226 218 209 204 205 212 224 240 262 278 289 292 278 215 168 168 179 179 179 181 184 187 188 188
16 9 17 357 11 355 350 340 329 317 325 334 328 319 312 299 268 259 262 256 232 218 209 203 210 215 232 253 268 275 283 290 279 209 177 177 183 188 188 188 190 191 191
15 357 4 12 0 354 347 326 321 328 345 339 341 341 342 339 334 310 277 269 255 231 206 206 204 206 217 227 246 257 269 285 285 283 216 187 182 189 195 195 192 191 192
17 349 358 21 1 0 348 328 340 344 344 345 350 356 352 345 335 334 318 291 278 256 229 228 212 201 210 213 224 237 248 259 270 278 272 225 192 181 184 197 195 191 191
40 348 345 21 23 10 5 338 356 353 347 346 357 1 351 336 333 329 316 320 323 303 263 248 240 215 209 209 217 226 227 237 247 254 263 269 224 187 182 186 190 196 195
40 342 339 32 24 17 12 342 347 351 340 357 1 4 352 351 347 333 331 326 321 310 290 268 253 238 225 205 198 222 236 238 246 250 256 263 260 220 185 176 181 186 195
18 351 3 32 22 20 9 355 344 352 338 6 1 3 359 360 358 351 348 336 322 311 301 295 270 250 250 208 188 179 206 227 238 238 244 251 252 234 190 186 189 188 184
23 23 6 24 23 25 1 15 348 341 346 2 354 357 344 1 16 5 346 344 335 334 314 301 279 263 255 241 211 202 195 210 205 223 231 237 242 241 223 194 197 196 185
31 28 6 19 16 20 359 1 340 349 353 339 338 346 345 13 23 14 356 347 341 343 336 320 323 276 258 258 248 233 238 247 191 213 236 234 238 239 234 227 214 204 195
31 32 10 14 11 17 350 324 327 356 325 323 339 354 347 346 12 29 4 346 343 345 344 337 331 313 271 255 250 247 244 246 234 217 228 227 234 238 232 229 230 221 205
59 40 5 1 5 3 337 324 336 343 335 338 355 355 343 342 1 20 3 348 345 348 338 331 323 311 294 277 265 251 240 233 221 216 225 223 220 232 230 228 229 226 209
Height
1536 1535 1536 1537 1538 1539 1540 1541 1542 1543 1543 1544 1544 1545 1545 1545 1545 1546 1546 1546 1546 1546 1546 1546 1546 1546 1546 1546 1546 1546 1545 1545 1545 1545 1545 1545 1545 1545 1545 1545 1545 1545 1546
1536 1536 1537 1538 1539 1539 1540 1541 1542 1543 1543 1544 1544 1544 1545 1545 1545 1545 1546 1546 1546 1546 1546 1546 1546 1546 1546 1546 1546 1546 1546 1546 1546 1546 1546 1546 1546 1546 1546 1546 1546 1546 1546
1536 1537 1538 1539 1539 1540 1540 1541 1542 1542 1543 1543 1543 1544 1544 1545 1545 1545 1545 1545 1545 1545 1545 1545 1545 1546 1546 1546 1546 1546 1546 1546 1546 1546 1546 1546 1546 1546 1546 1546 1546 1546 1547
1537 1537 1538 1539 1539 1540 1540 1541 1541 1542 1542 1542 1543 1543 1543 1543 1544 1544 1544 1544 1544 1545 1545 1545 1545 1545 1545 1546 1546 1546 1546 1546 1547 1547 1546 1546 1546 1546 1546 1546 1546 1547 1547
1537 1538 1538 1538 1539 1539 1539 1540 1540 1541 1541 1541 1541 1541 1542 1542 1542 1543 1543 1543 1543 1543 1544 1544 1544 1544 1545 1545 1545 1545 1546 1546 1546 1546 1547 1546 1546 1546 1546 1546 1546 1547 1547
1537 1537 1538 1538 1538 1538 1539 1539 1539 1539 1539 1539 1539 1540 1540 1540 1541 1541 1541 1542 1542 1542 1542 1543 1543 1543 1544 1544 1544 1545 1545 1546 1546 1546 1546 1546 1546 1546 1546 1546 1546 1546 1547
1538 1537 1537 1537 1537 1537 1537 1537 1537 1537 1537 1537 1537 1538 1538 1538 1539 1539 1539 1540 1540 1541 1541 1541 1542 1542 1542 1543 1543 1544 1544 1545 1545 1546 1546 1545 1545 1545 1545 1546 1546 1546 1547
1538 1538 1537 1536 1536 1536 1535 1535 1535 1535 1535 1535 1535 1536 1536 1536 1536 1537 1537 1538 1538 1539 1539 1540 1540 1540 1541 1541 1542 1543 1543 1544 1544 1545 1545 1545 1545 1545 1545 1545 1546 1546 1547
1538 1538 1537 1536 1535 1534 1533 1533 1533 1533 1533 1533 1533 1533 1533 1534 1534 1535 1535 1536 1536 1537 1538 1538 1538 1539 1539 1540 1540 1541 1542 1543 1543 1544 1544 1544 1544 1545 1545 1545 1546 1546 1547
1538 1537 1536 1535 1534 1533 1531 1530 1530 1529 1529 1529 1529 1530 1530 1531 1531 1532 1532 1533 1534 1535 1536 1536 1537 1537 1538 1538 1539 1539 1540 1541 1542 1543 1543 1543 1544 1544 1545 1545 1545 1546 1547
1539 1537 1536 1535 1533 1532 1530 1529 1527 1527 1526 1526 1526 1526 1526 1527 1528 1529 1529 1530 1531 1532 1533 1534 1535 1535 1536 1536 1537 1538 1539 1540 1540 1541 1542 1542 1543 1544 1544 1545 1545 1546 1547
1539 1537 1536 1534 1532 1531 1529 1527 1525 1524 1524 1523 1523 1523 1523 1523 1524 1525 1526 1527 1528 1529 1530 1531 1533 1533 1534 1534 1535 1536 1537 1538 1539 1540 1540 1541 1542 1543 1544 1544 1545 1545 1546
1538 1536 1535 1533 1531 1529 1527 1526 1524 1522 1521 1521 1520 1520 1520 1520 1521 1522 1522 1524 1524 1526 1527 1528 1530 1531 1531 1532 1533 1534 1535 1536 1537 1539 1539 1540 1541 1542 1543 1544 1544 1545 1546
1536 1535 1533 1531 1530 1528 1526 1524 1522 1521 1520 1519 1518 1518 1518 1517 1518 1518 1519 1520 1521 1522 1523 1525 1526 1527 1529 1530 1530 1531 1533 1534 1536 1537 1537 1539 1540 1541 1542 1543 1543 1544 1545
1536 1534 1532 1530 1529 1527 1525 1523 1521 1520 1519 1518 1517 1516 1515 1515 1515 1516 1516 1517 1518 1519 1519 1521 1522 1523 1525 1526 1528 1529 1530 1532 1533 1534 1535 1537 1539 1540 1541 1541 1542 1543 1544
1535 1534 1531 1529 1527 1525 1523 1521 1520 1518 1517 1516 1515 1514 1514 1513 1513 1513 1513 1514 1514 1515 1516 1517 1518 1520 1521 1523 1524 1526 1528 1529 1531 1532 1532 1535 1536 1538 1539 1540 1541 1542 1543
1535 1533 1531 1529 1526 1524 1522 1520 1518 1517 1516 1515 1514 1513 1512 1512 1511 1511 1511 1511 1511 1512 1513 1514 1515 1516 1518 1519 1520 1522 1524 1526 1528 1529 1530 1532 1534 1535 1537 1538 1539 1540 1541
1534 1532 1530 1528 1526 1524 1521 1519 1518 1516 1514 1513 1512 1511 1510 1509 1508 1508 1508 1508 1509 1509 1510 1511 1512 1513 1514 1515 1517 1519 1521 1523 1525 1526 1528 1529 1531 1532 1534 1536 1537 1538 1539
1533 1532 1530 1528 1525 1523 1521 1519 1517 1515 1513 1512 1511 1509 1508 1507 1506 1506 1505 1506 1506 1506 1507 1508 1509 1510 1511 1512 1513 1515 1517 1519 1521 1523 1525 1527 1528 1529 1531 1533 1535 1536 1537
1532 1531 1529 1527 1525 1523 1520 1519 1517 1515 1513 1511 1509 1508 1506 1505 1504 1504 1503 1503 1503 1504 1504 1505 1506 1506 1508 1509 1511 1512 1513 1515 1517 1519 1521 1523 1524 1526 1528 1530 1532 1534 1535
1532 1530 1529 1527 1524 1522 1520 1518 1516 1514 1512 1511 1509 1507 1505 1504 1503 1502 1501 1501 1501 1501 1501 1502 1502 1503 1504 1506 1508 1509 1510 1511 1512 1514 1516 1519 1521 1523 1524 1526 1528 1530 1532
1531 1530 1528 1526 1524 1522 1520 1518 1516 1515 1513 1511 1509 1507 1505 1503 1502 1500 1499 1499 1499 1499 1499 1499 1500 1500 1501 1503 1504 1506 1507 1508 1508 1509 1511 1514 1516 1519 1521 1522 1524 1526 1529
1530 1529 1528 1526 1524 1521 1520 1518 1516 1514 1512 1510 1509 1507 1505 1503 1501 1500 1498 1497 1497 1497 1497 1497 1497 1498 1498 1500 1501 1503 1504 1503 1504 1506 1507 1509 1512 1514 1517 1518 1520 1522 1524
1529 1528 1527 1525 1523 1521 1519 1517 1515 1514 1512 1511 1509 1507 1506 1504 1502 1500 1498 1497 1496 1495 1495 1495 1495 1495 1496 1496 1498 1499 1501 1501 1503 1502 1503 1504 1506 1509 1511 1514 1516 1518 1520
1528 1527 1526 1524 1523 1521 1519 1517 1516 1514 1512 1511 1509 1508 1506 1504 1502 1500 1498 1496 1495 1494 1493 1493 1493 1493 1493 1493 1494 1495 1496 1498 1499 1500 1500 1500 1501 1503 1506 1508 1510 1513 1516
1527 1526 1525 1524 1522 1520 1519 1517 1516 1514 1512 1511 1509 1507 1505 1504 1502 1500 1498 1496 1494 1493 1492 1491 1491 1490 1490 1491 1491 1492 1493 1494 1495 1496 1497 1497 1497 1499 1501 1503 1506 1508 1511